Date,TemperatureHighF,TemperatureAvgF,TemperatureLowF,DewpointHighF,DewpointAvgF,DewpointLowF,HumidityHigh,HumidityAvg,HumidityLow,PressureMaxIn,PressureMinIn,WindSpeedMaxMPH,WindSpeedAvgMPH,GustSpeedMaxMPH,PrecipitationSumIn
2013-1-1,51.8,42.0,34.9,47.7,36.8,31.6,93,82,61,30.09,29.54,6,1,14,0.07
2013-1-2,51.6,43.8,34.5,49.3,41.3,32.4,94,91,83,30.36,30.09,2,0,6,0.00
2013-1-3,57.2,51.0,46.9,52.7,47.9,42.7,94,89,85,30.65,30.36,2,1,8,0.00
2013-1-4,56.1,49.5,43.0,49.0,44.6,36.6,90,83,72,30.69,30.63,4,1,10,0.00
2013-1-5,52.2,48.2,42.4,48.9,45.1,40.6,95,89,82,30.64,30.55,3,0,8,0.00
2013-1-6,47.5,45.4,41.4,46.7,44.0,40.0,97,95,90,30.56,30.42,2,0,4,0.00
2013-1-7,53.6,46.7,44.6,46.9,43.7,41.9,93,89,85,30.42,30.28,3,1,8,0.01
2013-1-8,55.2,50.1,43.5,50.7,45.9,39.3,94,86,74,30.30,30.22,2,0,5,0.04
2013-1-9,55.0,43.6,30.6,47.8,40.1,28.8,96,88,64,30.23,30.12,4,0,8,0.07
2013-1-10,40.5,34.3,28.9,38.3,32.4,27.4,96,93,88,30.11,29.96,2,0,6,0.00
2013-1-11,50.7,35.5,29.3,42.3,32.8,27.8,96,90,67,30.12,30.02,2,0,3,0.00
2013-1-12,47.1,38.5,32.2,42.4,32.4,23.7,96,80,56,30.02,29.89,6,2,12,0.11
2013-1-13,42.6,35.0,29.3,32.8,28.2,22.1,83,76,63,30.18,30.00,4,1,11,0.00
2013-1-14,37.6,33.0,31.1,34.7,30.3,26.6,95,90,80,30.14,29.66,3,0,9,0.07
2013-1-15,40.6,33.0,26.6,36.5,29.3,24.9,93,86,77,29.91,29.66,8,1,17,0.08
2013-1-16,32.7,28.0,24.8,29.3,26.0,23.0,95,92,86,30.06,29.88,3,0,5,0.00
2013-1-17,44.8,31.7,22.1,34.9,26.4,20.4,94,81,61,30.11,29.92,2,0,6,0.00
2013-1-18,37.6,31.1,28.0,32.0,26.1,23.8,91,82,68,29.92,29.47,6,2,14,0.01
2013-1-19,38.7,32.1,30.7,33.0,28.1,20.5,90,85,78,29.52,29.44,4,2,14,0.00
2013-1-20,37.4,30.6,24.4,34.5,27.4,19.2,93,88,78,29.52,29.31,5,1,11,0.00
2013-1-21,37.9,31.8,26.1,31.9,28.8,23.5,94,89,77,29.54,29.30,1,0,3,0.00
2013-1-22,43.5,32.0,22.8,39.6,28.5,21.0,96,87,72,29.73,29.54,7,1,15,0.13
2013-1-23,41.0,34.9,32.2,35.6,30.2,27.6,89,83,79,29.85,29.72,4,2,8,0.04
2013-1-24,39.0,34.3,28.9,30.7,28.2,21.7,87,78,69,30.17,29.85,4,1,9,0.00
2013-1-25,43.3,33.9,27.5,38.5,28.2,20.5,90,80,71,30.16,29.60,6,1,12,0.04
2013-1-26,51.4,41.7,35.1,42.9,37.4,27.6,95,85,63,29.86,29.58,5,1,13,0.25
2013-1-27,56.3,46.5,37.0,54.6,39.1,31.4,95,77,51,29.66,29.30,7,2,18,0.18
2013-1-28,55.6,43.0,32.9,50.2,38.8,30.3,94,85,73,29.85,29.54,8,2,21,0.07
2013-1-29,60.8,52.9,48.6,53.5,49.6,44.3,95,88,78,29.69,29.57,4,2,14,0.07
2013-1-30,60.3,49.9,43.7,58.5,42.6,31.8,94,77,56,30.06,29.54,8,2,16,0.19
2013-1-31,54.3,47.8,43.7,43.9,39.8,36.6,86,74,60,30.07,29.82,8,2,15,0.06
2013-2-1,47.3,41.9,36.7,42.9,38.0,34.0,94,86,72,29.88,29.49,4,0,8,0.22
2013-2-2,48.9,38.1,27.9,38.9,29.8,23.4,88,72,58,30.28,29.64,8,3,18,0.00
2013-2-3,54.7,39.9,27.7,51.2,35.7,22.9,90,85,78,30.29,29.93,3,0,9,0.00
2013-2-4,61.3,48.4,41.9,46.1,38.5,30.2,89,70,44,29.98,29.75,9,2,19,0.00
2013-2-5,51.1,40.5,34.5,43.1,31.4,25.3,86,71,49,29.74,29.36,8,2,20,0.05
2013-2-6,49.3,39.9,30.9,38.1,32.1,21.8,89,74,60,30.09,29.40,13,4,26,0.09
2013-2-7,49.8,37.8,31.3,37.3,29.3,24.0,91,72,49,30.14,30.02,5,1,11,0.02
2013-2-8,48.0,37.3,29.5,39.2,31.6,27.7,94,80,59,30.19,30.06,8,1,15,0.01
2013-2-9,40.1,37.0,33.4,35.8,33.2,29.5,91,86,78,30.19,29.89,4,0,12,0.02
2013-2-10,45.9,37.9,32.9,43.4,36.1,31.4,96,93,90,29.90,29.30,6,2,14,0.73
2013-2-11,40.6,33.7,27.3,38.8,31.9,25.8,95,93,91,29.81,29.32,4,1,8,0.22
2013-2-12,41.0,34.2,32.5,35.7,29.1,26.4,93,81,74,30.18,29.82,4,1,9,0.00
2013-2-13,43.2,35.1,32.9,37.4,28.1,21.8,92,76,56,30.24,30.01,5,1,13,0.01
2013-2-14,57.7,46.5,37.8,47.2,40.8,34.1,96,81,60,30.01,29.76,4,2,12,0.06
2013-2-15,56.8,42.3,32.7,44.0,35.5,31.2,95,78,53,30.24,30.01,4,0,8,0.00
2013-2-16,54.5,44.1,36.9,41.1,35.3,30.5,91,73,43,30.28,30.23,2,0,4,0.00
2013-2-17,56.1,40.3,30.4,42.5,33.5,28.6,95,79,44,30.25,30.14,5,1,11,0.00
2013-2-18,50.2,40.1,31.5,37.9,33.8,28.9,94,79,57,30.18,30.14,4,1,8,0.00
2013-2-19,57.2,38.8,25.5,42.0,31.2,24.0,95,77,48,30.18,30.09,2,0,4,0.00
2013-2-20,45.9,37.5,34.2,37.9,30.7,23.8,95,77,58,30.30,30.14,7,2,12,0.04
2013-2-21,42.8,34.6,32.0,29.1,22.3,19.3,68,60,54,30.30,30.21,8,3,15,0.00
2013-2-22,41.7,33.7,28.9,29.0,22.2,15.6,70,63,56,30.21,30.14,5,2,15,0.00
2013-2-23,42.1,33.6,31.3,33.2,25.2,20.4,83,71,57,30.25,30.13,4,2,10,0.00
2013-2-24,40.6,34.3,32.7,33.0,26.9,19.2,83,74,67,30.32,30.23,5,2,11,0.00
2013-2-25,42.3,37.5,28.6,37.1,32.7,24.4,87,83,74,30.42,30.29,8,3,13,0.00
2013-2-26,46.4,38.9,30.4,43.7,36.1,28.6,94,90,85,30.60,30.42,4,2,11,0.01
2013-2-27,45.9,38.6,32.4,40.2,33.5,25.7,93,82,66,30.61,30.52,5,2,11,0.00
2013-3-4,42.8,34.7,32.0,29.1,22.4,19.3,68,60,54,30.30,30.21,8,3,15,0.00
2013-3-5,41.7,33.7,26.6,29.0,22.1,15.6,70,62,56,30.21,30.14,5,2,15,0.00
2013-3-6,42.1,33.7,31.3,33.2,25.2,20.4,83,71,57,30.25,30.13,4,2,10,0.00
2013-3-7,40.6,34.2,25.3,33.0,26.9,19.2,83,74,67,30.32,30.23,5,2,11,0.00
2013-3-8,42.3,37.4,28.6,38.4,32.6,24.4,87,82,72,30.42,30.29,8,3,13,0.00
2013-3-9,46.4,38.9,30.4,44.2,36.1,28.6,94,90,85,30.60,30.42,4,2,11,0.01
2013-3-10,45.9,38.2,32.4,40.2,33.1,25.7,93,82,66,30.61,29.77,5,2,15,0.53
2013-3-11,39.9,31.9,25.3,31.6,22.0,15.4,78,67,48,29.80,29.76,10,4,20,0.00
2013-3-12,46.8,34.4,26.8,32.2,22.4,15.5,83,63,39,29.86,29.78,9,4,24,0.00
2013-3-13,50.2,37.5,28.8,34.6,27.9,23.0,89,69,43,29.99,29.82,7,2,14,0.00
2013-3-14,50.9,37.5,26.2,35.5,25.6,20.7,92,65,36,30.06,29.95,4,1,11,0.00
2013-3-15,53.8,42.9,36.3,48.7,37.6,25.8,92,82,64,29.95,29.57,4,2,12,0.18
2013-3-16,50.9,44.0,40.6,44.5,40.2,36.8,90,86,83,29.57,29.40,8,4,21,0.14
2013-3-21,50.5,40.8,20.3,38.4,31.7,16.3,89,70,62,30.06,29.95,97,3,49,0.02
2013-3-22,45.3,37.6,36.0,40.5,32.6,30.9,88,82,67,29.95,29.78,103,5,151,0.21
2013-3-23,37.6,34.1,33.4,34.6,31.6,31.0,92,90,87,29.91,29.79,5,2,13,0.27
2013-3-24,33.8,32.3,31.1,31.3,26.7,22.6,91,80,63,29.98,29.90,5,0,11,0.00
2013-3-25,40.3,33.6,32.0,30.6,24.0,22.0,75,68,63,30.01,29.96,6,2,14,0.00
2013-3-26,40.8,33.7,28.9,28.5,23.6,17.6,80,66,58,29.98,29.92,7,2,13,0.00
2013-3-27,42.6,35.4,30.2,29.9,24.2,17.6,80,64,49,29.93,29.89,6,2,11,0.00
2013-3-28,45.3,36.6,25.5,33.6,25.3,21.4,86,65,49,29.99,29.88,4,2,12,0.00
2013-3-29,49.6,34.0,28.0,32.3,24.0,21.6,78,68,37,29.96,29.88,5,1,9,0.00
2013-4-7,58.5,43.0,26.6,33.9,25.3,15.1,85,54,22,30.32,29.92,4,1,9,0.00
2013-4-8,59.2,44.3,36.3,39.0,30.0,22.6,77,59,36,29.92,29.59,7,3,15,0.00
2013-4-9,41.7,38.5,36.9,38.1,34.3,32.8,88,85,77,29.59,29.43,4,1,8,0.02
2013-4-10,60.3,46.0,36.9,41.6,37.5,33.4,93,74,44,29.76,29.47,5,1,10,0.19
2013-4-11,62.1,47.1,38.5,52.5,42.7,36.6,94,85,65,29.53,29.40,6,1,12,0.12
2013-4-12,63.1,49.2,43.9,55.8,44.9,40.4,95,86,63,29.59,29.33,5,1,12,0.21
2013-4-22,64.9,52.1,42.3,47.2,42.3,38.6,89,71,40,30.07,29.98,3,1,7,0.00
2013-4-23,72.0,60.7,48.4,51.2,47.5,45.1,93,65,40,30.25,30.01,3,1,10,0.00
2013-4-24,76.3,60.4,46.0,59.4,49.9,43.3,91,70,45,30.30,30.22,4,1,8,0.02
2013-4-25,77.7,62.3,51.3,56.4,50.8,43.6,95,69,37,30.29,30.06,4,1,10,0.00
2013-4-26,61.7,49.9,38.3,49.6,37.3,27.2,91,65,34,30.07,29.93,8,2,15,0.15
2013-4-27,55.8,44.2,35.4,46.5,35.2,30.5,88,71,49,30.15,29.93,8,2,14,0.06
2013-4-28,63.1,47.1,30.6,40.3,33.2,27.9,91,62,32,30.15,29.93,3,1,8,0.00
2013-4-29,64.4,52.5,42.3,42.6,36.0,31.1,87,56,31,30.21,29.92,6,1,13,0.00
2013-4-30,70.5,51.3,37.9,42.3,35.9,30.6,84,58,31,30.36,30.21,6,2,11,0.00
2013-5-1,65.1,51.4,36.7,43.1,34.1,26.2,90,57,27,30.36,30.20,6,1,11,0.00
2013-5-2,72.5,55.3,41.2,35.6,25.8,7.9,64,38,10,30.27,30.19,5,1,11,0.00
2013-5-3,82.0,57.2,37.0,47.8,38.2,31.8,84,53,25,30.23,30.08,7,1,13,0.00
2013-5-4,68.5,55.3,43.5,50.2,41.2,34.1,85,61,29,30.17,30.01,7,1,18,0.00
2013-5-5,71.8,58.4,41.7,51.1,45.7,37.5,87,64,44,30.24,30.17,3,0,6,0.00
2013-5-6,80.2,64.2,49.5,51.7,46.3,40.2,86,56,30,30.21,30.08,2,0,4,0.00
2013-5-7,78.8,63.0,44.8,48.2,43.0,39.9,85,52,27,30.12,29.90,4,1,11,0.00
2013-5-8,67.3,58.0,48.7,56.0,49.2,40.8,91,73,53,29.90,29.72,3,1,11,0.05
2013-5-9,65.3,52.2,42.8,52.5,42.0,37.4,91,70,38,29.87,29.70,6,1,19,0.02
2013-5-10,67.5,55.5,47.7,49.2,46.1,38.7,89,72,42,29.96,29.71,7,1,15,0.04
2013-5-11,61.5,50.2,41.4,50.3,43.0,37.2,92,78,53,29.96,29.82,4,1,15,0.30
2013-5-12,73.0,51.8,39.4,56.1,43.3,37.3,94,76,37,30.04,29.93,4,1,10,0.05
2013-5-13,63.1,54.3,44.4,50.2,41.5,30.4,93,65,34,29.94,29.83,5,1,15,0.00
2013-5-14,59.0,49.0,43.5,47.5,42.3,37.8,93,79,53,29.85,29.26,8,1,24,0.34
2013-5-15,60.1,48.9,38.1,43.5,40.0,33.4,86,72,48,29.59,29.17,7,1,23,0.02
2013-5-16,70.7,52.1,36.0,49.1,39.2,32.3,94,66,25,29.60,29.51,3,0,8,0.01
2013-5-17,62.2,50.1,42.6,49.5,42.0,37.3,91,74,59,29.85,29.60,4,1,10,0.00
2013-5-18,63.7,54.7,47.3,46.3,43.3,37.2,82,66,49,29.84,29.75,4,0,8,0.00
2013-5-19,68.5,57.4,45.0,49.9,46.0,41.3,90,67,47,29.93,29.82,5,1,10,0.00
2013-5-20,68.0,58.6,52.0,59.5,52.8,47.6,89,81,70,29.94,29.87,8,2,14,0.01
2013-5-21,61.5,56.9,52.9,55.6,49.7,46.0,85,77,63,30.11,29.94,6,2,16,0.00
2013-5-22,63.0,53.3,45.9,53.8,43.4,34.2,88,70,46,30.14,30.05,7,1,15,0.00
2013-5-23,57.0,47.3,41.0,40.7,35.7,28.6,78,65,42,30.05,29.92,8,2,21,0.01
2013-5-24,51.3,45.0,38.1,46.1,39.8,32.2,89,82,71,30.06,29.65,8,2,11,0.21
2013-5-25,67.1,51.9,40.8,47.3,38.8,35.3,94,64,38,30.21,30.07,5,2,11,0.00
2013-5-26,72.3,57.2,38.1,42.2,37.9,32.8,89,53,25,30.17,29.99,4,1,10,0.00
2013-5-27,69.6,56.5,40.3,45.6,38.4,23.7,83,54,22,29.99,29.67,5,1,17,0.00
2013-5-28,59.9,52.0,48.7,52.8,47.4,40.0,93,85,59,29.66,29.51,4,0,7,0.46
2013-5-29,58.8,51.9,45.9,53.2,48.2,44.0,94,87,71,29.80,29.59,5,1,9,0.02
2013-5-30,60.4,55.1,48.4,53.2,50.7,46.2,95,85,72,30.04,29.78,8,2,17,0.13
2013-5-31,73.0,61.7,51.3,56.1,50.9,46.6,87,69,48,30.16,30.03,7,2,12,0.00
2013-6-1,71.4,58.2,49.3,49.2,44.1,41.0,78,60,41,30.34,30.16,7,2,12,0.00
2013-6-2,72.9,58.6,45.3,46.6,42.0,33.2,86,57,35,30.47,30.34,8,1,16,0.00
2013-6-3,72.5,59.3,44.4,50.8,42.7,39.7,89,57,36,30.53,30.43,5,1,11,0.00
2013-6-4,74.5,59.7,44.4,53.0,42.9,37.9,84,57,34,30.47,30.25,6,2,15,0.00
2013-6-5,76.1,59.5,46.9,56.6,47.0,42.1,87,65,42,30.27,30.12,7,2,11,0.00
2013-6-6,75.2,61.4,47.1,52.1,47.1,42.6,85,62,41,30.24,30.16,4,2,11,0.00
2013-6-7,73.6,60.3,47.7,53.8,46.5,40.5,79,62,37,30.27,30.21,4,2,11,0.01
2013-6-8,68.4,57.6,46.0,50.0,45.4,37.5,84,65,47,30.27,30.11,8,2,15,0.00
2013-6-9,67.6,55.4,50.7,51.9,44.9,42.7,78,68,56,30.12,30.00,4,2,14,0.00
2013-6-10,63.3,55.9,50.9,45.7,43.2,40.6,71,63,50,30.05,29.98,2,0,6,0.00
2013-6-11,66.4,58.1,48.0,58.6,51.0,42.1,82,77,64,30.01,29.93,4,0,11,0.00
2013-6-12,66.2,60.7,57.4,59.2,55.5,51.4,92,83,66,29.93,29.83,4,1,14,0.04
2013-6-13,65.3,58.9,53.2,57.9,50.4,44.8,91,74,54,30.07,29.80,5,1,11,0.00
2013-6-14,68.2,58.1,45.5,52.0,46.9,38.8,89,68,36,30.10,29.83,4,1,11,0.00
2013-6-15,67.1,58.5,50.9,56.0,48.9,38.0,91,71,45,29.90,29.72,4,1,9,0.17
2013-6-16,68.7,59.8,52.3,52.4,48.4,44.9,83,67,49,30.00,29.91,2,0,7,0.00
2013-6-17,72.9,62.6,55.0,56.0,49.5,46.4,79,63,47,30.01,29.95,4,1,13,0.00
2013-6-18,76.3,65.0,55.8,62.0,55.6,49.4,87,72,51,30.01,29.94,3,0,8,0.00
2013-6-19,82.0,70.2,60.3,67.2,59.2,55.0,91,70,43,30.01,29.95,3,0,7,0.00
2013-6-20,73.9,66.8,59.7,62.0,58.5,52.8,85,75,60,30.00,29.82,4,0,7,0.00
2013-6-21,72.5,63.8,57.6,60.7,56.6,53.4,88,78,62,29.91,29.80,3,0,8,0.01
2013-6-22,67.5,58.7,53.1,58.4,52.7,49.1,95,81,67,29.90,29.69,3,1,10,0.09
2013-6-23,70.5,59.5,49.5,56.2,51.0,42.3,91,74,58,30.06,29.68,6,1,13,0.04
2013-6-24,64.6,57.2,43.2,47.5,45.0,38.0,86,65,46,30.34,30.06,4,0,9,0.00
2013-6-25,73.0,61.3,49.1,50.2,44.6,39.7,84,57,33,30.45,30.33,4,0,8,0.00
2013-6-26,77.2,62.5,49.5,53.6,48.0,44.3,85,61,40,30.47,30.39,4,0,11,0.00
2013-6-27,70.2,60.6,51.1,53.5,49.4,45.0,91,68,46,30.42,30.22,4,0,8,0.04
2013-6-28,71.6,62.2,54.3,62.7,57.6,51.7,94,85,72,30.22,30.08,2,0,7,0.02
2013-6-29,74.5,64.4,50.7,57.8,49.0,40.5,86,59,40,30.28,30.10,6,1,12,0.01
2013-6-30,86.4,69.0,57.7,61.8,55.5,49.8,90,64,39,30.28,30.09,3,0,11,0.00
2013-7-1,72.5,63.8,55.8,52.1,49.2,46.2,83,61,43,30.11,30.01,4,0,11,0.00
2013-7-2,64.9,59.0,52.0,55.6,50.1,46.7,84,73,55,30.03,29.69,2,0,6,0.00
2013-7-3,71.8,63.7,55.6,61.4,55.6,52.8,94,76,55,30.05,29.64,4,0,13,0.01
2013-7-4,77.4,65.4,53.1,61.0,55.7,49.5,91,72,49,30.29,30.04,3,0,8,0.00
2013-7-5,80.2,68.3,52.9,58.6,52.9,49.6,91,61,38,30.45,30.29,3,0,6,0.00
2013-7-6,84.6,71.3,55.6,60.9,54.5,50.8,86,58,35,30.46,30.37,2,0,7,0.00
2013-7-7,85.5,73.7,60.6,60.9,57.0,51.3,87,59,33,30.54,30.45,4,1,8,0.00
2013-7-8,83.7,71.0,59.4,64.5,56.0,51.3,82,61,40,30.56,30.46,5,1,11,0.00
2013-7-9,80.6,68.7,51.6,54.1,47.3,38.5,85,51,25,30.49,30.30,6,1,16,0.00
2013-7-10,78.4,66.2,54.1,60.1,52.1,43.4,78,61,37,30.33,30.28,6,2,13,0.00
2013-7-11,73.9,62.6,47.3,51.9,47.4,39.9,78,59,40,30.34,30.26,4,1,10,0.00
2013-7-12,78.8,64.9,53.1,59.6,52.6,47.7,83,66,46,30.34,30.25,2,0,6,0.00
2013-7-13,89.6,75.9,59.4,64.8,59.4,54.2,87,60,39,30.28,30.24,4,0,11,0.00
2013-7-14,92.5,75.8,63.9,65.3,58.3,47.6,81,57,36,30.28,30.20,4,1,9,0.00
2013-7-15,87.1,71.1,-16.6,58.3,49.2,-28.6,69,50,17,30.27,30.20,49,1,49,0.00
2013-7-16,89.1,77.1,63.3,60.0,55.4,48.7,73,49,32,30.26,30.18,2,0,6,0.00
2013-7-17,90.0,78.1,63.9,59.2,56.2,51.1,72,49,32,30.30,30.22,2,0,5,0.00
2013-7-18,84.0,75.3,64.0,63.9,55.8,53.4,72,52,36,30.35,30.29,5,1,12,0.00
2013-7-19,83.5,73.4,59.7,63.7,54.6,49.3,69,53,39,30.35,30.23,4,1,11,0.00
2013-7-20,75.2,68.6,61.5,63.8,57.7,53.8,86,69,57,30.29,30.19,4,1,12,0.00
2013-7-21,82.9,70.1,62.1,64.8,58.3,53.0,82,67,47,30.21,30.05,3,1,8,0.00
2013-7-22,91.2,77.5,59.4,65.6,60.7,54.8,87,60,35,30.08,29.96,3,0,7,0.00
2013-7-23,85.8,75.2,65.7,69.3,63.1,56.5,82,67,48,29.98,29.91,2,0,6,0.04
2013-7-24,81.5,70.6,59.4,61.4,57.6,54.7,86,65,43,30.00,29.94,2,0,5,0.00
2013-7-25,78.6,69.8,61.9,65.7,60.2,55.1,93,73,48,29.97,29.90,2,0,8,0.24
2013-7-26,82.6,69.9,56.3,60.7,55.0,50.6,90,62,39,29.96,29.87,2,0,5,0.00
2013-7-27,84.9,69.5,57.9,65.6,55.6,50.1,93,65,34,29.89,29.61,3,0,8,0.19
2013-7-28,77.2,67.5,58.1,60.8,57.6,54.7,95,72,49,29.81,29.61,2,0,49,0.08
2013-7-29,76.1,66.9,58.8,62.5,58.0,52.9,93,75,52,30.00,29.81,4,0,11,0.00
2013-7-30,75.9,63.7,58.5,65.7,59.7,56.0,95,87,63,30.01,29.88,2,0,6,0.33
2013-7-31,76.5,67.6,61.3,64.6,60.7,56.2,91,79,66,30.03,29.98,2,0,6,0.01
2013-8-1,95.0,79.4,61.5,72.2,62.6,57.1,92,60,33,29.97,29.70,4,0,11,0.00
2013-8-2,79.0,70.0,62.6,63.6,58.9,50.2,86,69,45,29.85,29.77,2,0,5,0.00
2013-8-3,76.3,67.3,58.6,59.7,56.2,51.0,94,70,47,30.13,29.83,3,0,11,0.06
2013-8-4,77.0,67.4,58.3,58.6,55.7,52.4,90,68,44,30.15,30.06,2,0,8,0.00
2013-8-5,75.4,66.1,59.2,61.9,58.0,53.4,96,76,51,30.07,29.80,2,0,8,0.59
2013-8-6,80.2,64.9,51.1,60.2,51.9,47.8,96,66,40,30.07,29.95,3,0,7,0.00
2013-8-7,73.6,65.7,57.6,55.8,50.8,46.0,88,60,40,30.07,29.95,5,1,13,0.00
2013-8-8,81.7,66.8,51.3,55.0,50.5,46.8,86,59,33,30.16,30.07,2,0,8,0.00
2013-8-9,75.9,67.3,59.4,63.2,54.5,45.0,92,66,41,30.22,30.06,4,1,11,0.00
2013-8-10,73.4,64.7,53.8,52.2,48.7,44.8,79,58,38,30.24,30.16,3,0,10,0.00
2013-8-11,74.3,66.4,59.9,58.6,51.5,45.7,81,60,40,30.17,30.04,4,0,11,0.00
2013-8-12,75.6,63.3,54.9,54.7,48.5,43.2,84,61,36,30.13,30.03,3,0,11,0.00
2013-8-13,77.0,60.3,50.4,56.0,49.7,44.4,92,70,41,30.25,30.13,3,0,9,0.00
2013-8-14,80.2,63.7,49.6,62.4,54.5,48.0,95,75,43,30.26,30.18,1,0,4,0.01
2013-8-15,74.8,67.2,62.1,67.7,61.6,58.2,95,83,64,30.19,30.04,2,0,5,0.02
2013-8-16,76.1,66.4,61.2,65.2,61.1,58.2,91,84,68,30.04,29.97,1,0,4,0.02
2013-8-17,73.9,63.4,55.9,60.4,57.0,54.2,96,81,53,30.02,29.77,2,0,11,0.00
2013-8-18,84.7,67.6,60.1,65.1,56.0,50.7,93,68,47,29.94,29.75,2,0,8,0.00
2013-8-19,78.1,64.4,52.2,55.9,49.6,42.1,88,61,38,30.35,29.94,4,0,8,0.00
2013-8-20,80.6,65.7,51.4,55.7,50.1,46.5,85,60,37,30.40,30.32,3,0,6,0.00
2013-8-21,79.7,67.6,53.1,57.7,53.1,49.9,90,63,38,30.34,30.18,3,0,7,0.00
2013-8-22,73.6,66.7,61.7,66.1,61.6,57.4,94,84,71,30.19,30.09,3,0,7,0.07
2013-8-23,82.8,71.1,59.2,64.4,59.1,54.9,94,69,41,30.10,29.90,4,1,10,0.00
2013-8-24,72.0,63.6,56.8,69.2,59.9,54.2,94,88,76,29.91,29.85,4,0,8,0.50
2013-8-25,76.3,64.5,54.3,63.5,57.6,52.0,96,80,54,30.09,29.87,5,1,12,0.27
2013-8-26,78.1,67.6,59.4,61.9,55.9,48.2,90,69,42,30.14,30.06,4,1,10,0.00
2013-8-27,78.4,63.8,54.0,60.4,52.1,46.3,96,68,41,30.16,30.09,4,0,8,0.00
2013-8-28,74.8,65.1,53.4,56.1,51.7,41.8,93,64,38,30.26,30.16,3,0,6,0.00
2013-8-29,80.6,67.4,56.1,58.6,54.9,46.9,91,67,40,30.23,30.16,4,0,8,0.00
2013-8-30,82.8,68.3,57.6,63.3,57.8,54.5,91,71,49,30.18,30.08,3,0,8,0.00
2013-8-31,69.8,62.8,54.3,59.3,46.9,40.5,92,59,37,30.45,30.15,5,1,13,0.00
2013-9-1,72.1,60.2,47.3,51.6,46.8,41.4,83,63,41,30.49,29.56,4,0,9,0.00
2013-9-2,77.2,65.7,51.4,58.7,54.3,48.4,91,68,48,29.64,28.97,4,0,9,0.00
2013-9-3,78.3,67.4,56.1,61.7,57.7,53.5,93,73,52,29.59,28.78,2,0,4,0.00
2013-9-4,82.9,70.3,54.9,63.6,57.9,52.9,94,68,41,29.06,27.27,4,0,7,0.00
2013-9-5,85.6,71.8,57.7,63.6,57.7,51.5,93,65,40,27.42,26.16,4,0,8,0.00
2013-9-6,64.2,60.0,54.9,59.2,53.0,48.8,90,78,62,26.98,26.30,3,0,5,0.01
2013-9-7,69.4,58.4,50.2,54.8,48.1,45.0,86,70,48,28.31,26.93,2,0,8,0.00
2013-9-8,73.6,54.9,45.9,54.8,47.7,44.0,93,79,40,28.60,28.15,2,0,7,0.01
2013-9-9,55.9,51.7,45.9,53.4,49.8,44.2,96,93,90,28.59,28.24,2,0,4,0.21
2013-9-10,67.5,55.5,46.0,53.2,48.2,44.4,96,78,55,29.08,28.58,5,1,12,0.01
2013-9-11,68.0,57.5,53.6,54.0,49.9,46.6,94,77,58,29.18,28.70,8,1,13,0.07
2013-9-12,67.3,59.9,54.3,58.5,55.5,52.8,97,86,68,28.91,28.43,1,0,4,0.04
2013-9-13,66.0,61.7,54.7,64.7,60.0,53.5,98,94,86,28.54,27.58,5,0,11,1.25
2013-9-14,63.1,52.5,46.6,55.1,49.1,44.4,97,89,73,28.58,27.64,5,1,11,0.13
2013-9-15,65.7,52.9,41.0,58.9,48.6,39.9,97,86,59,28.56,26.33,2,0,11,0.07
2013-9-16,63.7,52.6,43.2,47.8,42.0,38.6,91,69,48,26.77,26.29,4,1,14,0.01
2013-9-17,60.8,52.2,44.6,55.0,47.3,39.8,96,84,62,26.77,25.22,2,0,6,0.26
2013-9-18,63.5,55.5,48.6,53.6,48.1,42.6,96,77,56,27.80,25.73,3,0,8,0.00
2013-9-19,61.0,52.6,43.3,59.5,49.3,40.7,95,89,71,28.16,27.04,2,0,8,0.04
2013-9-20,68.4,56.5,47.5,55.3,49.6,46.4,97,79,58,29.24,27.73,2,0,5,0.01
2013-9-21,66.9,58.6,48.9,60.5,54.4,46.4,93,86,77,29.65,29.24,1,0,5,0.00
2013-9-22,69.6,62.8,56.1,61.8,59.7,54.4,96,90,75,30.09,29.32,2,0,4,0.00
2013-9-23,65.7,58.2,-1.3,61.1,55.6,-5.9,98,91,78,29.69,28.87,97,0,97,0.01
2013-9-24,70.5,58.2,49.6,61.7,54.9,48.8,99,90,71,28.87,27.97,2,0,4,0.00
2013-9-25,72.0,62.9,55.4,61.0,57.7,53.7,97,84,65,27.97,27.44,3,0,7,0.00
2013-9-26,73.0,60.8,54.9,57.1,52.2,45.5,89,74,54,28.66,27.78,5,1,11,0.00
2013-9-27,64.9,56.8,49.5,52.7,49.2,45.6,91,76,57,28.61,27.92,6,1,11,0.00
2013-9-28,70.2,59.6,47.7,59.1,52.2,44.9,91,77,60,28.05,26.90,5,1,12,0.00
2013-9-29,67.1,60.5,56.8,55.4,52.1,50.4,83,74,61,27.23,26.48,4,1,10,0.00
2013-9-30,68.0,61.0,54.5,58.3,52.4,49.4,88,74,53,27.19,26.66,4,1,8,0.00
2013-10-1,64.2,56.6,41.2,54.1,49.4,8.9,91,78,26,30.03,27.16,4,1,55,2.14
2013-10-2,118.8,63.9,57.2,99.9,58.3,50.9,92,83,69,30.32,29.91,4,1,11,0.00
2013-10-3,77.5,60.3,54.7,61.5,57.1,39.9,97,90,26,30.24,29.51,97,4,97,7.23
2013-10-4,70.5,64.9,59.0,61.1,59.0,56.1,91,82,68,30.64,29.49,2,0,7,0.18
2013-10-5,68.5,59.9,54.0,58.8,55.1,51.3,96,85,66,31.94,30.64,3,0,6,0.00
2013-10-6,73.2,56.6,44.4,55.6,49.4,43.4,97,79,50,32.41,31.38,2,0,5,0.00
2013-10-7,67.1,57.2,47.5,58.8,52.4,45.8,97,85,68,32.38,31.60,2,0,5,0.00
2013-10-8,72.5,67.3,58.1,59.3,58.1,55.5,92,73,59,32.11,31.57,2,0,51,0.76
2013-10-9,66.7,56.1,45.9,57.0,47.0,38.4,93,72,58,31.78,30.73,97,2,97,0.00
2013-10-10,56.1,48.5,44.6,45.5,38.4,33.5,80,68,56,31.61,30.91,10,3,19,0.00
2013-10-11,59.4,52.2,37.4,55.2,46.8,12.3,91,82,35,31.65,30.85,74,4,74,0.18
2013-10-12,63.3,54.1,48.7,58.5,47.3,43.8,94,79,54,31.76,30.48,9,1,19,0.08
2013-10-13,52.9,50.0,45.5,51.8,48.3,44.4,97,94,88,30.95,29.97,97,1,98,0.45
2013-10-14,53.2,49.0,47.1,50.7,47.5,45.9,98,95,88,30.07,29.34,1,0,6,0.26
2013-10-15,56.1,49.9,44.8,50.1,47.1,43.0,98,91,76,30.83,29.80,2,0,7,0.00
2013-10-16,57.9,49.4,40.8,56.9,47.6,39.8,99,94,82,30.99,29.73,4,0,9,0.17
2013-10-17,70.0,57.4,49.5,57.0,52.1,47.1,94,83,60,31.08,30.03,3,0,8,0.00
2013-10-18,64.0,57.2,49.6,58.5,53.5,47.7,98,88,75,31.18,29.88,4,0,8,0.00
2013-10-19,66.9,58.5,53.4,62.3,55.9,51.7,96,91,84,29.95,29.24,2,0,4,0.05
2013-10-20,64.4,57.0,53.1,57.0,54.3,51.9,98,91,72,29.78,29.23,3,0,8,0.58
2013-10-21,63.5,59.8,54.1,58.9,56.7,53.2,98,90,80,29.79,28.81,2,0,7,0.01
2013-10-22,65.3,61.5,55.6,60.0,57.7,53.6,95,87,80,28.98,27.87,3,0,7,0.19
2013-10-23,65.1,57.0,46.0,57.0,51.5,43.4,96,82,60,30.34,27.55,3,0,9,0.05
2013-10-24,67.6,52.7,39.7,54.6,47.7,38.7,98,84,60,31.01,30.11,4,0,10,0.00
2013-10-25,68.0,60.5,55.9,62.7,56.0,52.7,98,85,74,30.13,29.12,4,1,10,0.11
2013-10-26,66.2,59.5,57.2,62.2,55.0,52.6,94,85,76,29.83,28.72,3,0,10,0.04
2013-10-27,62.8,56.7,50.5,55.9,50.9,45.1,96,82,60,28.75,27.66,4,1,12,0.43
2013-10-28,60.3,53.5,45.9,60.0,49.1,42.1,99,85,63,29.33,26.17,8,1,16,0.37
2013-10-29,56.7,47.5,39.6,47.0,41.6,36.7,95,81,57,31.50,29.33,4,0,13,0.00
2013-10-30,61.9,48.9,34.3,51.3,43.5,33.2,97,83,57,32.07,31.45,2,0,6,0.00
2013-10-31,60.8,54.6,52.9,57.2,51.7,48.7,96,90,83,31.48,30.78,2,0,8,0.04
2013-11-1,57.9,54.3,51.3,54.2,51.4,49.0,96,90,80,30.81,29.04,2,0,6,0.11
2013-11-2,60.8,53.2,49.8,54.1,47.9,40.5,97,83,65,29.23,28.19,4,1,10,0.04
2013-11-3,55.2,48.3,39.0,50.0,40.9,37.7,97,76,60,29.28,26.79,4,1,13,0.47
2013-11-4,55.8,44.2,36.3,50.1,39.4,33.3,97,84,61,28.61,26.68,7,2,14,0.22
2013-11-5,54.7,46.3,35.6,52.6,42.5,34.0,99,87,68,28.76,27.66,5,0,13,0.35
2013-11-6,59.4,53.6,48.2,56.9,50.7,42.3,97,90,79,29.10,28.56,2,0,6,0.14
2013-11-7,58.1,48.9,40.6,56.1,45.0,38.9,96,87,68,30.16,28.80,3,0,8,0.02
2013-11-8,55.2,42.8,35.8,53.2,42.0,35.0,99,97,93,30.09,29.16,2,0,4,0.33
2013-11-9,46.0,40.4,33.1,45.8,39.9,32.8,99,98,95,30.24,29.36,2,0,3,0.11
2013-11-10,52.7,42.2,33.6,42.4,37.9,32.1,99,86,61,32.14,29.43,5,1,14,0.01
2013-11-11,55.0,51.7,33.6,54.8,51.0,31.3,99,97,70,32.22,31.46,26,0,26,0.15
2013-11-12,55.8,49.4,36.9,55.1,47.0,35.7,99,92,72,33.32,31.51,5,1,9,0.06
2013-11-13,53.8,41.8,31.6,48.1,37.9,31.1,99,87,70,33.79,31.98,2,0,4,0.01
2013-11-14,58.6,45.6,34.5,47.3,39.6,30.2,92,80,64,32.94,31.61,7,1,17,0.01
2013-11-15,52.9,41.6,33.4,41.4,35.0,31.2,93,78,62,33.58,32.94,4,1,8,0.00
2013-11-16,52.5,40.7,29.8,43.9,37.9,28.8,98,90,71,33.65,32.86,2,0,4,0.00
2013-11-17,50.7,47.6,44.6,47.1,45.2,42.8,96,91,85,32.88,31.08,2,0,4,0.01
2013-11-18,50.5,47.1,43.3,48.5,45.6,40.0,99,95,86,31.12,29.58,4,0,7,0.00
2013-11-19,45.5,37.1,27.0,40.0,31.6,24.2,96,81,58,31.30,29.98,6,1,14,0.00
2013-11-20,50.2,36.0,25.9,47.7,34.0,24.0,96,92,86,31.31,28.11,7,0,12,0.27
2013-11-21,49.6,41.4,36.3,41.6,36.6,30.8,95,83,66,30.82,28.47,8,3,18,0.01
2013-11-22,50.2,41.0,32.2,40.8,35.3,28.5,93,81,65,31.90,30.82,7,2,14,0.00
2013-11-23,51.3,42.0,36.0,43.3,37.5,34.4,94,84,65,32.53,31.86,6,2,12,0.00
2013-11-24,53.8,43.5,38.1,50.0,38.7,33.4,88,83,76,33.54,32.54,5,2,9,0.00
2013-11-25,47.3,42.1,39.0,43.9,36.9,33.2,91,82,72,34.17,33.56,6,1,11,0.00
2013-11-26,52.7,40.9,30.9,38.7,34.4,28.3,93,78,58,34.43,33.72,3,0,7,0.00
2013-11-27,52.2,46.3,42.1,48.7,43.7,38.0,95,91,84,33.72,33.31,2,0,4,0.01
2013-11-28,50.9,47.6,45.3,46.3,45.0,43.6,96,91,82,33.81,33.39,2,0,5,0.00
2013-11-29,54.3,46.6,42.6,46.2,41.4,36.8,94,83,69,33.39,31.77,6,1,13,0.01
2013-11-30,50.2,42.7,33.3,41.7,36.3,30.9,91,78,68,33.08,31.97,7,2,12,0.00
2013-12-1,50.2,42.3,31.6,43.9,38.9,29.9,95,88,76,33.55,33.06,2,0,4,0.00
2013-12-2,51.6,46.0,41.4,48.8,41.2,38.2,93,84,70,33.76,32.84,2,0,4,0.00
2013-12-3,44.4,42.7,38.1,40.4,36.1,30.6,90,78,71,33.08,32.46,2,0,5,0.00
2013-12-4,50.4,43.4,35.1,44.3,37.4,31.8,90,80,63,33.14,32.51,4,0,8,0.00
2013-12-6,50.0,43.9,35.4,44.3,36.3,29.6,93,75,56,35.70,29.08,4,0,8,0.00
2013-12-7,50.4,44.7,41.9,48.1,42.1,40.0,94,91,84,172.69,29.66,3,0,5,0.00
2013-12-8,54.9,45.6,37.6,45.8,42.4,36.3,98,89,69,181.51,28.17,4,1,11,0.01
2013-12-9,56.7,44.3,37.8,49.9,42.0,37.2,99,92,72,188.10,32.85,2,0,4,0.00
2013-12-10,49.3,39.5,32.5,47.4,38.1,31.5,99,95,84,36.35,23.00,2,0,4,0.01
2013-12-11,41.0,34.8,30.4,40.7,34.4,29.7,99,99,96,174.83,20.09,1,0,2,0.00
2013-12-12,47.7,39.6,28.6,47.4,39.2,28.3,99,99,97,172.75,20.05,2,0,4,0.01
2013-12-13,59.9,50.0,44.4,53.0,47.4,42.0,99,91,76,173.44,27.27,3,1,7,0.05
2013-12-14,56.8,46.2,35.2,51.4,42.4,33.7,96,87,72,172.30,20.43,5,1,11,0.04
2013-12-15,57.4,51.6,45.0,56.0,50.3,43.4,98,95,91,189.14,16.32,5,2,14,0.18
2013-12-16,61.5,52.2,44.1,58.9,50.5,42.4,97,94,86,191.69,40.00,8,2,17,0.32
2013-12-17,46.0,42.1,39.4,44.1,40.7,38.3,98,95,89,184.20,40.00,3,0,6,0.20
2013-12-18,55.6,46.9,40.3,52.2,44.7,39.8,99,92,83,185.37,32.88,8,2,24,0.21
2013-12-19,53.8,43.0,35.4,46.3,38.4,34.3,96,84,58,175.16,26.87,4,0,11,0.18
2013-12-20,57.0,43.0,31.8,47.6,38.9,31.1,99,86,66,177.29,22.49,5,1,14,0.01
2013-12-21,56.1,51.1,46.4,54.4,48.4,41.6,96,91,77,171.59,31.07,6,3,15,0.21
2013-12-22,52.2,46.7,44.6,46.5,41.6,39.3,88,82,77,185.77,33.48,4,2,12,0.01
2013-12-23,57.2,52.2,48.9,55.2,49.7,46.7,94,91,89,29.85,27.49,11,5,24,0.41
2013-12-24,57.9,46.2,39.4,54.2,42.5,34.7,95,87,76,27.80,27.15,10,2,24,0.41
2013-12-25,50.7,39.7,35.8,41.0,37.1,33.7,98,90,67,28.68,27.68,4,0,8,0.07
2013-12-26,50.2,38.8,35.1,46.2,37.9,34.8,99,97,79,30.22,28.68,8,0,13,0.02
2013-12-27,56.5,48.2,43.7,50.7,41.2,36.1,96,77,64,29.38,28.22,8,2,21,0.07
2013-12-28,60.4,40.4,31.3,45.1,34.9,29.8,95,82,56,31.38,29.37,2,0,5,0.00
2013-12-29,49.1,37.7,27.5,45.1,34.5,27.2,99,89,66,33.13,31.38,4,0,14,0.00
2013-12-30,51.3,47.4,41.7,48.2,43.6,39.8,95,87,76,32.77,31.21,8,3,23,0.15
2013-12-31,54.1,45.9,41.4,50.9,43.4,37.8,98,91,83,32.07,30.30,7,2,14,0.19
2014-1-1,53.2,48.0,43.0,49.8,45.4,40.4,96,91,83,30.63,28.15,11,3,18,0.28
2014-1-2,59.0,48.2,42.1,48.3,43.8,40.3,94,85,65,30.27,28.25,6,1,14,0.06